Location: ?????????
(38.4921°N, 22.9787°E)
Time: 03:53:22
(UTC+00:00)

Cosmos 841 Rocket - Pass Details

Date: 08 December 2025
Orbit: 743 x 767 km, 74.0° (Epoch: 21 January)

Event Time Altitude Azimuth Distance (km) Brightness Sun altitude
Rises 03:32:11 0° 202° (SSW) 3,201 6.6 -22.9°
Reaches altitude 10° 03:34:32 10° 205° (SSW) 2,283 5.8 -22.5°
Maximum altitude 03:39:43 72° 289° (WNW) 805 3.3 -21.5°
Drops below altitude 10° 03:44:57 10° 14° (NNE) 2,310 6.0 -20.5°
Sets 03:47:21 0° 17° (NNE) 3,241 6.8 -20.1°
